Location: Malvern Link
(52.1333°N, 2.3000°W)
Time: 11:33:23
(UTC+00:00)

Iridium 4 Rocket - Pass Details

Date: 18 September 2020
Orbit: 584 x 905 km, 86.9° (Epoch: 30 October)

Event Time Altitude Azimuth Distance (km) Brightness Sun altitude
Rises 19:21:53 0° 195° (SSW) 3,087 6.6 -10.8°
Reaches altitude 10° 19:24:07 10° 199° (SSW) 2,220 5.9 -11.1°
Maximum altitude 19:29:01 57° 279° (W) 916 4.3 -11.8°
Drops below altitude 10° 19:34:25 10° 358° (N) 2,444 6.4 -12.6°
Sets 19:36:59 0° 2° (N) 3,426 7.1 -13.0°
